Location: Musselshell
(46.5176°N, 108.0911°W)
Time: 16:06:52
(UTC+00:00)

YUBILEINY - Pass Details

Date: 02 July 2022
Orbit: 1478 x 1509 km, 82.5° (Epoch: 14 August)

Event Time Altitude Azimuth Distance (km) Brightness Sun altitude
Rises 08:51:41 0° 355° (N) 4,655 ? -17.2°
Reaches altitude 10° 08:56:38 10° 19° (NNE) 3,664 ? -16.9°
Maximum altitude 09:01:04 14° 50° (NE) 3,309 ? -16.5°
Drops below altitude 10° 09:05:28 10° 81° (E) 3,645 ? -16.2°
Sets 09:10:18 0° 104° (ESE) 4,613 ? -15.8°
